Regional Weather Roundup
Issued by NWS

Home | Current Version | Previous Version | Graphics & Text | Print | Product List | Glossary On
Versions: 1 2 3 4 5 6 7 8 9 10 11 12 13 14 15 16 17 18 19 20 21 22 23 24 25 26 27 28 29 30 31 32 33 34 35 36 37 38 39 40 41 42 43 44 45 46 47 48 49 50
000
ASUS44 KMEG 231510
RWRTN
TENNESSEE HOURLY STATE WEATHER ROUNDUP
NATIONAL WEATHER SERVICE MEMPHIS TN
1000 AM CDT WED JUL 23 2014

TNZ002-004-019-021-049-052-054-088>092-231600-
WEST TENNESSEE

CITY           SKY/WX    TMP DP  RH WIND       PRES   REMARKS
MEMPHIS INTL   MOSUNNY   85  71  63 S3        30.07S HX  90
NWS MEMPHIS      N/A     87 N/A N/A MISG        N/A
JACKSON        SUNNY     85  74  69 E3        30.07S HX  92
DYERSBURG      MOSUNNY   82  66  57 CALM      30.08S
UNION CITY     SUNNY     81  72  74 SW5       30.05F
PARIS          SUNNY     82  70  67 CALM      30.09R
LEXINGTON      MOSUNNY   84  75  74 SW6       30.08R HX  92
SAVANNAH       SUNNY     83  78  84 SW3       30.10R HX  93
$$

TNZ008-025-027-028-033-062-065-066-231600-
NORTH MIDDLE TENNESSEE

CITY           SKY/WX    TMP DP  RH WIND       PRES   REMARKS
NASHVILLE      MOSUNNY   85  72  65 S6        30.10S HX  91
DICKSON        SUNNY     82  73  74 W3        30.10R
PORTLAND       CLOUDY    82  73  74 SW3       30.09S
CLARKSVILLE    SUNNY     86  71  60 N9        30.09S HX  91
LEBANON        PTSUNNY   83  72  69 SW3       30.09S
SMYRNA         MOSUNNY   89  75  63 CALM      30.11S HX  98
MURFREESBORO     N/A     83  72  69 CALM      30.09S
COOKEVILLE     PTSUNNY   82  73  74 CALM      30.12S
LIVINGSTON     SUNNY     81  71  71 SW5       30.13
GALLATIN       SUNNY     85  76  74 VRB3      30.10F HX  94
CROSSVILLE     MOSUNNY   80  69  69 W5        30.17S
$$

TNZ061-075-076-078-094-096-097-231600-
SOUTH MIDDLE TENNESSEE

CITY           SKY/WX    TMP DP  RH WIND       PRES   REMARKS
LEWISBURG      MOSUNNY   82  73  74 CALM      30.10R
FAYETTEVILLE   SUNNY     79  70  73 S8        30.12S
TULLAHOMA      MOSUNNY   79  70  73 W3        30.14S
WINCHESTER     PTSUNNY   81  72  74 CALM      30.12S
MCMINNVILLE    MOSUNNY   82  75  78 VRB5      30.12F
COLUMBIA       SUNNY     86  73  66 VRB3      30.09S HX  93
SHELBYVILLE    MOSUNNY   81  73  78 CALM      30.13R
$$

TNZ017-018-042-046-047-231600-
NORTHEAST TENNESSEE

CITY           SKY/WX    TMP DP  RH WIND       PRES   REMARKS
TRI CITIES     CLOUDY    75  68  78 S6        30.15S
ELIZABETHTON   PTSUNNY   75  66  73 CALM      30.16S
$$

TNZ012-013-036-069-073-074-231600-
CENTRAL EAST TENNESSEE

CITY           SKY/WX    TMP DP  RH WIND       PRES   REMARKS
KNOXVILLE      PTSUNNY   77  70  79 S6        30.12S
OAK RIDGE      CLOUDY    80  72  76 VRB5      30.12F
GATLINBURG     CLOUDY    72  70  94 VRB3      30.14S
MORRISTOWN       N/A     73  73 100 S6        30.15S
$$

TNZ083-085-099-231600-
SOUTHEAST TENNESSEE

CITY           SKY/WX    TMP DP  RH WIND       PRES   REMARKS
CHATTANOOGA    MOSUNNY   83  70  64 CALM      30.11F
$$

SKY/WX REPORTED AS FAIR MEANS FEW OR NO CLOUDS BELOW
12 THOUSAND FEET.




USA.gov is the U.S. government's official web portal to all federal, state and local government web resources and services.